Weather History for Marshfield, WI

Change the Weather History Date:

Monday, January 27, 2014

  Actual Average Record
Temperature  
Mean Temperature -9 °F -  
Max Temperature -2 °F 22 °F 50 °F (2002)
Min Temperature -16 °F 2 °F -31 °F (1950)
Degree Days  
Heating Degree Days 74    
Moisture  
Dew Point -21 °F    
Average Humidity 63    
Maximum Humidity 71    
Minimum Humidity 53    
Precipitation  
Precipitation 0.00 in - - ()
Sea Level Pressure  
Sea Level Pressure 30.19 in    
Wind  
Wind Speed 17 mph (WNW)    
Max Wind Speed 22 mph    
Max Gust Speed 29 mph    
Averages and records for this station are not official NWS values.
T = Trace of Precipitation, MM = Missing Value Source: NWS Daily Summary

Daily Weather History Graph

Daily Weather History Graph

Search for Another Location

Airport:

Trip Planner

Search our weather history database for the weather conditions in past years. The results will help you decide how hot, cold, wet, or windy it might be!

Date:

Astronomy

Jan. 27, 2014 Rise Set
Actual Time 7:24 AM CST 5:02 PM CST
Civil Twilight 6:53 AM CST 5:34 PM CST
Nautical Twilight 6:18 AM CST 6:09 PM CST
Astronomical Twilight 5:43 AM CST 6:43 PM CST
Moon 4:08 AM CST 1:46 PM CST
Length of Visible Light 10h 40m
Length of Day
9h 37m
Waning Crescent, 14% of the Moon is Illuminated
Jan 27
Waning Crescent
Jan 30
New
Feb 6
First Quarter
Feb 14
Full
Feb 22
Last Quarter

Hourly Weather History & Observations

Time (CST) Temp. Windchill Dew Point Humidity Pressure Visibility Wind Dir Wind Speed Gust Speed Precip Events Conditions
12:06 AM -2.0 °F -23.9 °F -11.9 °F 63% 29.79 in - NW 18.4 mph - N/A   Scattered Clouds
12:54 AM -4.0 °F -25.2 °F -14.1 °F 62% 29.93 in - WNW 16.1 mph - N/A   Clear
1:17 AM -4.0 °F -25.8 °F -11.9 °F 69% 29.84 in - WNW 17.3 mph 25.3 mph N/A   Mostly Cloudy
1:54 AM -5.1 °F -29.0 °F -13.0 °F 69% 29.96 in - WNW 20.7 mph - N/A   Partly Cloudy
2:54 AM -7.1 °F -29.8 °F -16.1 °F 65% 30.01 in - WNW 17.3 mph - N/A   Clear
3:36 AM -7.1 °F -30.4 °F -16.1 °F 65% 29.93 in - WNW 18.4 mph 27.6 mph N/A   Mostly Cloudy
3:54 AM -8.0 °F -30.3 °F -16.1 °F 68% 30.04 in - WNW 16.1 mph 24.2 mph N/A   Overcast
4:11 AM -9.0 °F -30.2 °F -17.0 °F 68% 29.95 in - WNW 13.8 mph 25.3 mph N/A   Scattered Clouds
4:54 AM -9.9 °F -33.5 °F -18.9 °F 65% 30.08 in - WNW 17.3 mph 25.3 mph N/A   Clear
5:54 AM -13.0 °F -38.2 °F -20.9 °F 68% 30.12 in - WNW 18.4 mph - N/A   Clear
6:54 AM -15.0 °F -42.0 °F -23.1 °F 67% 30.15 in - NW 20.7 mph - N/A   Clear
7:54 AM -16.1 °F -42.8 °F -25.1 °F 64% 30.20 in - NW 19.6 mph - N/A   Clear
8:54 AM -16.1 °F -43.4 °F -25.1 °F 64% 30.24 in - WNW 20.7 mph 28.8 mph N/A   Clear
9:54 AM -16.1 °F -41.4 °F -25.1 °F 64% 30.27 in - WNW 17.3 mph 26.5 mph N/A   Clear
10:28 AM -15.0 °F -42.0 °F -25.1 °F 61% 30.16 in - NW 20.7 mph 28.8 mph N/A   Partly Cloudy
10:54 AM -15.0 °F -42.6 °F -25.1 °F 61% 30.29 in - WNW 21.9 mph - N/A   Clear
11:54 AM -13.0 °F -37.5 °F -24.0 °F 58% 30.30 in - WNW 17.3 mph 25.3 mph N/A   Clear
12:54 PM -11.9 °F -36.1 °F -23.1 °F 58% 30.30 in - WNW 17.3 mph - N/A   Clear
1:54 PM -9.9 °F -34.2 °F -22.0 °F 55% 30.30 in - WNW 18.4 mph 25.3 mph N/A   Clear
2:54 PM -9.0 °F -30.9 °F -22.0 °F 53% 30.32 in - WNW 15.0 mph - N/A   Clear
3:54 PM -9.0 °F -30.9 °F -22.0 °F 53% 30.33 in - WNW 15.0 mph 23.0 mph N/A   Clear
4:54 PM -11.0 °F -32.7 °F -22.0 °F 58% 30.35 in - WNW 13.8 mph - N/A   Clear
5:54 PM -11.9 °F -29.9 °F -23.1 °F 58% 30.37 in - West 9.2 mph - N/A   Clear
6:54 PM -13.0 °F -33.4 °F -23.1 °F 61% 30.38 in - West 11.5 mph - N/A   Clear
7:54 PM -13.0 °F -32.4 °F -23.1 °F 61% 30.38 in - West 10.4 mph - N/A   Clear
8:54 PM -15.0 °F -32.4 °F -24.0 °F 64% 30.39 in - West 8.1 mph - N/A   Clear
9:54 PM -16.1 °F -35.0 °F -24.0 °F 67% 30.40 in - West 9.2 mph - N/A   Clear
10:54 PM -16.1 °F -35.0 °F -24.0 °F 67% 30.39 in - West 9.2 mph - N/A   Clear
11:54 PM -16.1 °F -37.2 °F -23.1 °F 71% 30.38 in - West 11.5 mph - N/A   Clear